Location: Moscow
(55.7500°N, 37.5830°E)
Time: 14:24:56
(UTC+03:00)

Vanguard 1 - Pass Details

Date: 01 December 2021
Orbit: 652 x 3830 km, 34.2° (Epoch: 25 January)

Event Time Altitude Azimuth Distance (km) Brightness Sun altitude
Exits shadow 07:30:17 - 271° (W) 7,207 13.9 -8.4°
Reaches altitude 10° 07:38:16 10° 253° (WSW) 5,740 13.6 -7.4°
Maximum altitude 07:44:42 13° 230° (SW) 4,836 13.4 -6.7°
Drops below altitude 10° 07:50:01 10° 205° (SSW) 4,548 13.5 -6.0°
Sets 07:55:31 0° 180° (S) 4,886 14.1 -5.3°
